User: anonymous   Login
Location: Arbon
(43.0005°N, 0.7472°E)
Time: 19:00:18
(UTC+00:00)
Language:

Cosmos 482 Debris - Orbit

View from above orbital plane
View from above orbital plane
View from above satellite
View from above satellite

Ground track
Ground track

The orbit data is extracted from the following two-line orbital elements,

1  6073U 72023E   20296.17789729  .00028876  59799-5  11520-3 0  9996
2  6073  52.0473 343.1354 1331645   6.9162 354.8246 13.13359007518816
Epoch (UTC): 22 October 2020 04:16:10
Eccentricity: 0.1331645
inclination: 52.0473°
perigee height: 200 km
apogee height: 2220 km
right ascension of ascending node: 343.1354°
argument of perigee: 6.9162°
revolutions per day: 13.13359007
mean anomaly at epoch: 354.8246°
orbit number at epoch: 51881

The dashed part of the orbit path shows where the satellite is in the earth's shadow,  

DLR